Change the Weather History Date:

Thursday, December 20, 2012

  Actual Average (KVPZ) Record (KVPZ)
Temperature  
Mean Temperature 42 °F 27 °F  
Max Temperature 51 °F 33 °F 52 °F (2012)
Min Temperature 32 °F 20 °F -6 °F (2000)
Degree Days  
Heating Degree Days 24 38  
Month to date heating degree days 707  
Since 1 July heating degree days 1965  
Cooling Degree Days 0 0  
Month to date cooling degree days 0  
Year to date cooling degree days 713  
Moisture  
Dew Point 39 °F    
Average Humidity 93    
Maximum Humidity 100    
Minimum Humidity 76    
Precipitation  
Precipitation 0.38 in 0.07 in 0.97 in (2012)
Month to date precipitation 1.47  
Year to date precipitation 36.80  
Sea Level Pressure  
Sea Level Pressure 29.32 in    
Wind  
Wind Speed 19 mph (SSE)    
Max Wind Speed 32 mph    
Max Gust Speed 44 mph    
Visibility 6 miles    
Events Rain , Snow , Thunderstorm    
T = Trace of Precipitation, MM = Missing Value Source: NWS Daily Summary

Daily Weather History Graph

Daily Weather History Graph

Search for Another Location

Airport or City:

Trip Planner

Search our weather history database for the weather conditions in past years. The results will help you decide how hot, cold, wet, or windy it might be!

Date:

Astronomy

Dec. 20, 2012 Rise Set
Actual Time 7:09 AM CST 4:23 PM CST
Civil Twilight 6:38 AM CST 4:54 PM CST
Nautical Twilight 6:03 AM CST 5:29 PM CST
Astronomical Twilight 5:30 AM CST 6:02 PM CST
Moon 11:43 AM CST (12/20) No Moon Set
Length of Visible Light 10h 16m
Length of Day
9h 13m
First Quarter, 55% of the Moon is Illuminated
Dec 20
First Quarter
Dec 28
Full
Jan 4
Last Quarter
Jan 11
New
Jan 18
First Quarter

Hourly Weather History & Observations

Time (CST) Temp. Windchill Dew Point Humidity Pressure Visibility Wind Dir Wind Speed Gust Speed Precip Events Conditions
12:15 AM 41.0 °F 30.9 °F 37.4 °F 87% 29.72 in 5.0 mi East 24.2 mph 28.8 mph N/A   Overcast
12:35 AM 41.0 °F 32.5 °F 37.4 °F 87% 29.73 in 5.0 mi East 17.3 mph 24.2 mph N/A   Light Drizzle
12:55 AM 41.0 °F 32.8 °F 39.2 °F 93% 29.71 in 3.0 mi East 16.1 mph 23.0 mph 0.01 in Rain Rain
1:15 AM 41.0 °F 35.2 °F 39.2 °F 93% 29.74 in 5.0 mi East 9.2 mph 18.4 mph 0.01 in Rain Light Rain
1:35 AM 41.0 °F 33.5 °F 39.2 °F 93% 29.70 in 5.0 mi East 13.8 mph - 0.02 in Rain Rain
1:55 AM 42.8 °F 35.4 °F 41.0 °F 93% 29.71 in 5.0 mi ESE 15.0 mph 24.2 mph 0.03 in Rain Rain
2:15 AM 41.0 °F 31.9 °F 41.0 °F 100% 29.68 in 2.5 mi East 19.6 mph 29.9 mph 0.01 in Rain Light Rain
2:35 AM 41.0 °F 31.9 °F 41.0 °F 100% 29.65 in 5.0 mi East 19.6 mph 25.3 mph 0.02 in Rain Light Rain
2:55 AM 42.8 °F 33.5 °F 41.0 °F 93% 29.62 in 4.0 mi East 23.0 mph 32.2 mph 0.03 in Rain Rain
3:15 AM 41.0 °F 31.6 °F 41.0 °F 100% 29.59 in 4.0 mi East 20.7 mph 26.5 mph 0.01 in Rain Light Rain
3:35 AM 41.0 °F 32.2 °F 41.0 °F 100% 29.57 in 4.0 mi East 18.4 mph 26.5 mph 0.01 in Rain Light Rain
3:55 AM 42.8 °F 35.4 °F 41.0 °F 93% 29.56 in 5.0 mi ESE 15.0 mph 26.5 mph 0.02 in Rain Light Rain
4:15 AM 42.8 °F 35.1 °F 41.0 °F 93% 29.54 in 4.0 mi ESE 16.1 mph 20.7 mph 0.01 in Rain Rain
4:35 AM 42.8 °F 34.8 °F 42.8 °F 100% 29.50 in 4.0 mi ESE 17.3 mph 24.2 mph 0.02 in Rain , Thunderstorm Rain
4:55 AM 44.6 °F 36.6 °F 42.8 °F 93% 29.47 in 2.5 mi ESE 19.6 mph 26.5 mph 0.03 in Thunderstorm Overcast
5:15 AM 44.6 °F 36.4 °F 42.8 °F 93% 29.46 in 4.0 mi ESE 20.7 mph 27.6 mph 0.01 in Rain Light Rain
5:35 AM 44.6 °F 36.1 °F 42.8 °F 93% 29.44 in 5.0 mi ESE 21.9 mph 28.8 mph 0.02 in Rain Light Rain
5:55 AM 44.6 °F 36.9 °F 42.8 °F 93% 29.44 in 5.0 mi ESE 18.4 mph 26.5 mph 0.03 in Rain Light Rain
6:15 AM 44.6 °F 38.8 °F 42.8 °F 93% 29.43 in 5.0 mi SE 11.5 mph - 0.02 in Rain Light Rain
6:35 AM 44.6 °F 37.4 °F 42.8 °F 93% 29.44 in 5.0 mi ESE 16.1 mph - 0.03 in Rain Light Rain
6:55 AM 44.6 °F 37.8 °F 42.8 °F 93% 29.43 in 5.0 mi ESE 15.0 mph 23.0 mph 0.04 in Rain Light Rain
7:15 AM 44.6 °F 36.6 °F 42.8 °F 93% 29.39 in 5.0 mi ESE 19.6 mph 27.6 mph 0.01 in Rain Light Rain
7:35 AM 44.6 °F 35.7 °F 42.8 °F 93% 29.32 in 5.0 mi East 24.2 mph 34.5 mph 0.02 in Rain Light Rain
7:55 AM 44.6 °F 36.6 °F 42.8 °F 93% 29.33 in 7.0 mi ESE 19.6 mph 35.7 mph 0.04 in   Overcast
8:15 AM 44.6 °F 35.7 °F 42.8 °F 93% 29.31 in 7.0 mi ESE 24.2 mph 29.9 mph N/A   Overcast
8:35 AM 44.6 °F 36.6 °F 42.8 °F 93% 29.25 in 7.0 mi East 19.6 mph 34.5 mph 0.02 in   Overcast
8:55 AM 44.6 °F 37.4 °F 42.8 °F 93% 29.29 in 7.0 mi ESE 16.1 mph 27.6 mph 0.02 in   Overcast
9:15 AM 44.6 °F 37.4 °F 44.6 °F 100% 29.28 in 7.0 mi ESE 16.1 mph 21.9 mph N/A   Overcast
9:35 AM 46.4 °F 39.5 °F 44.6 °F 93% 29.25 in 7.0 mi ESE 17.3 mph - 0.01 in   Overcast
9:55 AM 46.4 °F 40.4 °F 44.6 °F 93% 29.24 in 10.0 mi SE 13.8 mph 21.9 mph 0.02 in   Overcast
10:15 AM 48.2 °F - 46.4 °F 93% 29.22 in 10.0 mi SE 12.7 mph - 0.01 in   Overcast
10:35 AM 50.0 °F - 46.4 °F 87% 29.20 in 10.0 mi ESE 15.0 mph - 0.01 in   Overcast
10:55 AM 50.0 °F - 48.2 °F 94% 29.18 in 10.0 mi SE 13.8 mph 19.6 mph 0.02 in   Overcast
11:15 AM 51.8 °F - 50.0 °F 94% 29.16 in 10.0 mi SE 12.7 mph - 0.01 in   Overcast
11:35 AM 51.8 °F - 50.0 °F 94% 29.13 in 10.0 mi SE 15.0 mph 18.4 mph 0.01 in Rain Rain
11:55 AM 51.8 °F - 50.0 °F 94% 29.11 in 10.0 mi SE 16.1 mph 21.9 mph 0.02 in   Overcast
12:15 PM 51.8 °F - 50.0 °F 94% 29.09 in 7.0 mi SSE 15.0 mph - 0.01 in Rain Light Rain
12:35 PM 48.2 °F - 44.6 °F 87% 29.11 in 3.0 mi SSW 25.3 mph 40.3 mph 0.01 in Rain Light Rain
12:55 PM 46.4 °F 38.5 °F 44.6 °F 93% 29.11 in 7.0 mi SSW 21.9 mph 28.8 mph 0.02 in Rain Rain
1:15 PM 46.4 °F 38.7 °F 44.6 °F 93% 29.10 in 7.0 mi SSW 20.7 mph 28.8 mph 0.01 in   Light Drizzle
1:35 PM 46.4 °F 37.4 °F 42.8 °F 87% 29.11 in 10.0 mi SW 28.8 mph 38.0 mph 0.01 in   Overcast
1:55 PM 44.6 °F 35.7 °F 41.0 °F 87% 29.12 in 10.0 mi SW 24.2 mph 35.7 mph 0.02 in   Overcast
2:15 PM 44.6 °F 36.1 °F 37.4 °F 76% 29.13 in 10.0 mi SW 21.9 mph 26.5 mph N/A   Overcast
2:35 PM 42.8 °F 33.8 °F 37.4 °F 81% 29.13 in 10.0 mi SW 21.9 mph 31.1 mph 0.01 in   Overcast
2:55 PM 41.0 °F 30.9 °F 35.6 °F 81% 29.14 in 10.0 mi SSW 24.2 mph 36.8 mph 0.01 in   Overcast
3:15 PM 41.0 °F 31.9 °F 35.6 °F 81% 29.13 in 10.0 mi SSW 19.6 mph 28.8 mph 0.01 in   Overcast
3:55 PM 39.2 °F 28.5 °F 33.8 °F 81% 29.14 in 10.0 mi South 24.2 mph 33.4 mph 0.01 in   Overcast
4:15 PM 37.4 °F 25.9 °F 33.8 °F 87% 29.14 in 10.0 mi South 25.3 mph 31.1 mph N/A   Light Drizzle
4:35 PM 37.4 °F 27.5 °F 33.8 °F 87% 29.13 in 10.0 mi South 18.4 mph 26.5 mph N/A   Overcast
4:55 PM 37.4 °F 26.9 °F 33.8 °F 87% 29.12 in 10.0 mi South 20.7 mph 27.6 mph N/A   Overcast
5:15 PM 35.6 °F 25.2 °F 33.8 °F 93% 29.13 in 10.0 mi South 18.4 mph - N/A   Overcast
5:35 PM 35.6 °F 25.9 °F 33.8 °F 93% 29.13 in 10.0 mi South 16.1 mph 21.9 mph 0.01 in   Overcast
5:55 PM 35.6 °F 27.1 °F 33.8 °F 93% 29.13 in 10.0 mi South 12.7 mph - 0.01 in   Overcast
6:15 PM 35.6 °F 27.5 °F 33.8 °F 93% 29.12 in 10.0 mi South 11.5 mph - N/A   Overcast
6:35 PM 35.6 °F 29.2 °F 33.8 °F 93% 29.13 in 10.0 mi SSW 8.1 mph - N/A   Overcast
6:55 PM 35.6 °F 29.9 °F 35.6 °F 100% 29.14 in 1.8 mi WSW 6.9 mph - N/A   Drizzle
7:15 PM 35.6 °F 24.8 °F 35.6 °F 100% 29.15 in 10.0 mi West 19.6 mph 26.5 mph N/A   Overcast
7:35 PM 35.6 °F 24.0 °F 33.8 °F 93% 29.19 in 10.0 mi WNW 23.0 mph 38.0 mph N/A   Overcast
7:55 PM 35.6 °F 23.4 °F 33.8 °F 93% 29.22 in 10.0 mi WNW 25.3 mph 32.2 mph N/A   Drizzle
8:15 PM 33.8 °F 21.9 °F 33.8 °F 100% 29.24 in 7.0 mi WNW 21.9 mph 32.2 mph N/A Rain Rain
8:35 PM 33.8 °F 21.6 °F 32.0 °F 93% 29.27 in 2.5 mi West 23.0 mph 32.2 mph N/A Snow Light Snow
8:55 PM 33.8 °F 21.3 °F 32.0 °F 93% 29.29 in 2.5 mi West 24.2 mph 33.4 mph N/A Snow Light Snow
9:15 PM 33.8 °F 21.6 °F 32.0 °F 93% 29.31 in 1.8 mi West 23.0 mph 34.5 mph N/A Snow Light Snow
9:35 PM 32.0 °F 18.4 °F 32.0 °F 100% 29.32 in 1.8 mi West 26.5 mph 33.4 mph N/A Snow Light Snow
9:55 PM 32.0 °F 18.1 °F 32.0 °F 100% 29.34 in 2.0 mi West 27.6 mph 39.1 mph N/A Snow Light Snow
10:15 PM 32.0 °F 18.1 °F 32.0 °F 100% 29.36 in 1.8 mi West 27.6 mph 41.4 mph N/A Snow Light Snow
10:35 PM 32.0 °F 17.6 °F 32.0 °F 100% 29.37 in 1.8 mi West 29.9 mph 41.4 mph N/A Snow Light Snow
10:55 PM 32.0 °F 17.9 °F 32.0 °F 100% 29.39 in 2.0 mi West 28.8 mph 41.4 mph N/A Snow Light Snow
11:15 PM 32.0 °F 17.4 °F 32.0 °F 100% 29.40 in 5.0 mi West 31.1 mph 43.7 mph N/A Snow Light Snow
11:35 PM 32.0 °F 18.1 °F 32.0 °F 100% 29.42 in 7.0 mi West 27.6 mph 39.1 mph N/A   Overcast
11:55 PM 32.0 °F 17.2 °F 32.0 °F 100% 29.43 in 3.0 mi West 32.2 mph 41.4 mph N/A Snow Light Snow